Time,TemperatureF,DewpointF,PressureIn,WindDirection,WindDirectionDegrees,WindSpeedMPH,WindSpeedGustMPH,Humidity,HourlyPrecipIn,Conditions,Clouds,dailyrainin,SoftwareType,DateUTC
2013-02-11 00:00:00,18.3,16.6,30.38,ESE,122,0.0,0.0,93,0.00,,CLR,0.00,VWS V14.01,2013-02-11 05:00:00,
2013-02-11 00:06:00,18.2,16.3,30.38,ESE,122,0.0,0.0,92,0.00,,,0.00,VWS V14.01,2013-02-11 05:06:00,
2013-02-11 00:10:00,18.3,16.4,30.38,ESE,121,0.0,0.0,92,0.00,,OVC040,0.00,VWS V14.01,2013-02-11 05:10:00,
2013-02-11 00:11:00,18.2,16.3,30.38,ESE,121,0.0,0.0,92,0.00,,,0.00,VWS V14.01,2013-02-11 05:11:00,
2013-02-11 00:16:00,18.4,16.5,30.37,ESE,121,0.0,0.0,92,0.00,,,0.00,VWS V14.01,2013-02-11 05:16:00,
2013-02-11 00:20:00,18.4,16.5,30.37,ESE,121,0.0,0.0,92,0.00,,OVC040,0.00,VWS V14.01,2013-02-11 05:20:00,
2013-02-11 00:21:00,18.3,16.1,30.37,ESE,121,0.0,0.0,91,0.00,,,0.00,VWS V14.01,2013-02-11 05:21:00,
2013-02-11 00:26:00,18.2,16.0,30.37,ESE,121,0.0,0.0,91,0.00,,,0.00,VWS V14.01,2013-02-11 05:26:00,
2013-02-11 00:30:00,18.5,16.6,30.37,ESE,121,0.0,0.0,92,0.00,,OVC040,0.00,VWS V14.01,2013-02-11 05:30:00,
2013-02-11 00:31:00,18.6,16.4,30.37,ESE,121,0.0,0.0,91,0.00,,,0.00,VWS V14.01,2013-02-11 05:31:00,
2013-02-11 00:36:00,18.7,16.5,30.37,ESE,122,0.0,0.0,91,0.00,,,0.00,VWS V14.01,2013-02-11 05:36:00,
2013-02-11 00:40:00,18.5,16.1,30.37,ESE,121,0.0,0.0,90,0.00,,OVC040,0.00,VWS V14.01,2013-02-11 05:40:00,
2013-02-11 00:41:00,18.3,15.6,30.37,ESE,121,0.0,0.0,89,0.00,,,0.00,VWS V14.01,2013-02-11 05:41:00,
2013-02-11 00:46:00,18.1,15.4,30.37,ESE,122,0.0,0.0,89,0.00,,,0.00,VWS V14.01,2013-02-11 05:46:00,
2013-02-11 00:50:00,17.9,15.2,30.37,ESE,122,0.0,0.0,89,0.00,,OVC040,0.00,VWS V14.01,2013-02-11 05:50:00,
2013-02-11 00:51:00,17.8,15.1,30.36,ESE,121,0.0,0.0,89,0.00,,,0.00,VWS V14.01,2013-02-11 05:51:00,
2013-02-11 00:56:00,17.7,15.3,30.36,ESE,121,0.0,0.0,90,0.00,,,0.00,VWS V14.01,2013-02-11 05:56:00,
2013-02-11 01:00:00,17.5,14.8,30.36,ESE,121,0.0,0.0,89,0.00,,OVC040,0.00,VWS V14.01,2013-02-11 06:00:00,
2013-02-11 01:01:00,17.4,14.7,30.36,ESE,122,0.0,0.0,89,0.00,,CLR,0.00,VWS V14.01,2013-02-11 06:01:00,
2013-02-11 01:06:00,17.2,14.5,30.36,ESE,121,0.0,0.0,89,0.00,,CLR,0.00,VWS V14.01,2013-02-11 06:06:00,
2013-02-11 01:10:00,17.2,14.8,30.36,ESE,122,0.0,0.0,90,0.00,,OVC040,0.00,VWS V14.01,2013-02-11 06:10:00,
2013-02-11 01:11:00,17.3,14.9,30.37,ESE,121,0.0,0.0,90,0.00,,CLR,0.00,VWS V14.01,2013-02-11 06:11:00,
2013-02-11 01:16:00,17.2,14.8,30.37,WNW,290,0.0,1.0,90,0.00,,CLR,0.00,VWS V14.01,2013-02-11 06:16:00,
2013-02-11 01:20:00,17.3,15.1,30.37,WNW,290,0.0,1.0,91,0.00,,OVC040,0.00,VWS V14.01,2013-02-11 06:20:00,
2013-02-11 01:21:00,17.3,15.1,30.37,WNW,290,0.0,0.0,91,0.00,,CLR,0.00,VWS V14.01,2013-02-11 06:21:00,
2013-02-11 01:26:00,17.2,14.8,30.36,WNW,289,0.0,0.0,90,0.00,,CLR,0.00,VWS V14.01,2013-02-11 06:26:00,
2013-02-11 01:30:00,17.1,14.7,30.36,WNW,291,0.0,0.0,90,0.00,,OVC040,0.00,VWS V14.01,2013-02-11 06:30:00,
2013-02-11 01:31:00,17.0,14.6,30.36,WNW,291,0.0,0.0,90,0.00,,CLR,0.00,VWS V14.01,2013-02-11 06:31:00,
2013-02-11 01:36:00,17.0,14.8,30.36,WNW,291,0.0,0.0,91,0.00,,CLR,0.00,VWS V14.01,2013-02-11 06:36:00,
2013-02-11 01:40:00,17.0,14.8,30.36,WNW,291,0.0,0.0,91,0.00,,OVC040,0.00,VWS V14.01,2013-02-11 06:40:00,
2013-02-11 01:41:00,17.0,14.8,30.35,WNW,291,0.0,0.0,91,0.00,,CLR,0.00,VWS V14.01,2013-02-11 06:41:00,
2013-02-11 01:46:00,17.0,14.8,30.34,WNW,291,0.0,0.0,91,0.00,,CLR,0.00,VWS V14.01,2013-02-11 06:46:00,
2013-02-11 01:50:00,17.2,15.0,30.34,WNW,291,0.0,0.0,91,0.00,,OVC040,0.00,VWS V14.01,2013-02-11 06:50:00,
2013-02-11 01:51:00,17.3,15.1,30.34,WNW,291,0.0,0.0,91,0.00,,CLR,0.00,VWS V14.01,2013-02-11 06:51:00,
2013-02-11 01:56:00,17.3,15.1,30.34,WNW,291,0.0,0.0,91,0.00,,CLR,0.00,VWS V14.01,2013-02-11 06:56:00,
2013-02-11 02:00:00,17.3,15.1,30.33,WNW,290,0.0,0.0,91,0.00,,OVC040,0.00,VWS V14.01,2013-02-11 07:00:00,
2013-02-11 02:01:00,17.3,15.1,30.34,WNW,291,0.0,0.0,91,0.00,,CLR,0.00,VWS V14.01,2013-02-11 07:01:00,
2013-02-11 02:06:00,17.3,15.1,30.33,WNW,291,0.0,0.0,91,0.00,,CLR,0.00,VWS V14.01,2013-02-11 07:06:00,
2013-02-11 02:10:00,17.2,15.0,30.33,WNW,290,0.0,0.0,91,0.00,,OVC040,0.00,VWS V14.01,2013-02-11 07:10:00,
2013-02-11 02:11:00,17.2,15.0,30.33,WNW,291,0.0,0.0,91,0.00,,CLR,0.00,VWS V14.01,2013-02-11 07:11:00,
2013-02-11 02:16:00,17.2,15.0,30.33,WNW,291,0.0,0.0,91,0.00,,CLR,0.00,VWS V14.01,2013-02-11 07:16:00,
2013-02-11 02:20:00,17.2,15.0,30.33,WNW,291,0.0,0.0,91,0.00,,OVC040,0.00,VWS V14.01,2013-02-11 07:20:00,
2013-02-11 02:21:00,17.2,15.0,30.33,WNW,291,0.0,0.0,91,0.00,,CLR,0.00,VWS V14.01,2013-02-11 07:21:00,
2013-02-11 02:26:00,17.1,14.9,30.33,WNW,291,0.0,0.0,91,0.00,,CLR,0.00,VWS V14.01,2013-02-11 07:26:00,
2013-02-11 02:30:00,17.1,14.9,30.33,WNW,291,0.0,0.0,91,0.00,,OVC040,0.00,VWS V14.01,2013-02-11 07:30:00,
2013-02-11 02:31:00,17.2,15.0,30.32,WNW,291,0.0,0.0,91,0.00,,CLR,0.00,VWS V14.01,2013-02-11 07:31:00,
2013-02-11 02:36:00,17.1,14.9,30.32,WNW,291,0.0,0.0,91,0.00,,CLR,0.00,VWS V14.01,2013-02-11 07:36:00,
2013-02-11 02:40:00,17.1,14.9,30.32,WNW,291,0.0,0.0,91,0.00,,OVC040,0.00,VWS V14.01,2013-02-11 07:40:00,
2013-02-11 02:41:00,17.1,14.9,30.32,WNW,291,0.0,0.0,91,0.00,,CLR,0.00,VWS V14.01,2013-02-11 07:41:00,
2013-02-11 02:46:00,17.3,15.1,30.32,WNW,291,0.0,0.0,91,0.00,,CLR,0.00,VWS V14.01,2013-02-11 07:46:00,
2013-02-11 02:50:00,17.3,15.1,30.32,WNW,291,0.0,0.0,91,0.00,,OVC040,0.00,VWS V14.01,2013-02-11 07:50:00,
2013-02-11 02:51:00,17.3,15.1,30.32,WNW,291,0.0,0.0,91,0.00,,CLR,0.00,VWS V14.01,2013-02-11 07:51:00,
2013-02-11 02:56:00,17.3,15.1,30.32,WNW,291,0.0,0.0,91,0.00,,CLR,0.00,VWS V14.01,2013-02-11 07:56:00,
2013-02-11 03:00:00,17.3,15.1,30.32,WNW,291,0.0,0.0,91,0.00,,OVC040,0.00,VWS V14.01,2013-02-11 08:00:00,
2013-02-11 03:01:00,17.3,15.1,30.32,WNW,291,0.0,0.0,91,0.00,,CLR,0.00,VWS V14.01,2013-02-11 08:01:00,
2013-02-11 03:06:00,17.3,15.1,30.32,WNW,291,0.0,0.0,91,0.00,,CLR,0.00,VWS V14.01,2013-02-11 08:06:00,
2013-02-11 03:10:00,17.3,15.4,30.32,WNW,291,0.0,0.0,92,0.00,,OVC040,0.00,VWS V14.01,2013-02-11 08:10:00,
2013-02-11 03:11:00,17.3,15.4,30.32,WNW,291,0.0,0.0,92,0.00,,CLR,0.00,VWS V14.01,2013-02-11 08:11:00,
2013-02-11 03:16:00,17.5,15.6,30.32,WNW,291,0.0,0.0,92,0.00,,CLR,0.00,VWS V14.01,2013-02-11 08:16:00,
2013-02-11 03:20:00,19.3,17.6,30.29,WNW,291,0.0,0.0,93,0.00,,OVC070,0.00,VWS V14.01,2013-02-11 08:20:00,
2013-02-11 03:21:00,17.8,15.9,30.32,WNW,291,0.0,0.0,92,0.00,,CLR,0.00,VWS V14.01,2013-02-11 08:21:00,
2013-02-11 03:26:00,18.0,16.1,30.31,WNW,291,0.0,0.0,92,0.00,,CLR,0.00,VWS V14.01,2013-02-11 08:26:00,
2013-02-11 03:30:00,18.1,16.2,30.31,WNW,291,0.0,0.0,92,0.00,,OVC040,0.00,VWS V14.01,2013-02-11 08:30:00,
2013-02-11 03:31:00,18.1,16.2,30.31,WNW,291,0.0,0.0,92,0.00,,CLR,0.00,VWS V14.01,2013-02-11 08:31:00,
2013-02-11 03:36:00,18.1,16.2,30.31,WNW,291,0.0,0.0,92,0.00,,CLR,0.00,VWS V14.01,2013-02-11 08:36:00,
2013-02-11 03:40:00,18.2,16.3,30.31,WNW,291,0.0,0.0,92,0.00,,OVC040,0.00,VWS V14.01,2013-02-11 08:40:00,
2013-02-11 03:41:00,18.2,16.3,30.31,WNW,291,0.0,0.0,92,0.00,,CLR,0.00,VWS V14.01,2013-02-11 08:41:00,
2013-02-11 03:46:00,18.3,16.4,30.30,WNW,290,0.0,0.0,92,0.00,,CLR,0.00,VWS V14.01,2013-02-11 08:46:00,
2013-02-11 03:50:00,18.5,16.6,30.30,WNW,291,0.0,0.0,92,0.00,,OVC040,0.00,VWS V14.01,2013-02-11 08:50:00,
2013-02-11 03:51:00,18.5,16.6,30.30,WNW,291,0.0,0.0,92,0.00,,CLR,0.00,VWS V14.01,2013-02-11 08:51:00,
2013-02-11 03:56:00,18.6,16.7,30.30,WNW,291,0.0,0.0,92,0.00,,CLR,0.00,VWS V14.01,2013-02-11 08:56:00,
2013-02-11 04:00:00,18.7,16.8,30.30,WNW,291,0.0,0.0,92,0.00,,OVC040,0.00,VWS V14.01,2013-02-11 09:00:00,
2013-02-11 04:01:00,18.8,16.9,30.30,WNW,290,0.0,0.0,92,0.00,,CLR,0.00,VWS V14.01,2013-02-11 09:01:00,
2013-02-11 04:06:00,18.8,16.9,30.30,WNW,291,0.0,0.0,92,0.00,,CLR,0.00,VWS V14.01,2013-02-11 09:06:00,
2013-02-11 04:10:00,18.9,17.0,30.30,WNW,291,0.0,0.0,92,0.00,,OVC040,0.00,VWS V14.01,2013-02-11 09:10:00,
2013-02-11 04:11:00,19.0,17.1,30.30,WNW,291,0.0,0.0,92,0.00,,CLR,0.00,VWS V14.01,2013-02-11 09:11:00,
2013-02-11 04:16:00,19.2,17.5,30.29,WNW,291,0.0,0.0,93,0.00,,CLR,0.00,VWS V14.01,2013-02-11 09:16:00,
2013-02-11 04:20:00,19.3,17.6,30.29,WNW,291,0.0,0.0,93,0.00,,OVC040,0.00,VWS V14.01,2013-02-11 09:20:00,
2013-02-11 04:21:00,19.4,17.7,30.28,WNW,291,0.0,0.0,93,0.00,,CLR,0.00,VWS V14.01,2013-02-11 09:21:00,
2013-02-11 04:26:00,19.5,17.8,30.28,WNW,291,0.0,0.0,93,0.00,,CLR,0.00,VWS V14.01,2013-02-11 09:26:00,
2013-02-11 04:30:00,19.6,17.9,30.28,WNW,291,0.0,0.0,93,0.00,,OVC040,0.00,VWS V14.01,2013-02-11 09:30:00,
2013-02-11 04:31:00,19.6,17.9,30.28,WNW,291,0.0,0.0,93,0.00,,CLR,0.00,VWS V14.01,2013-02-11 09:31:00,
2013-02-11 04:36:00,19.7,18.0,30.28,WNW,291,0.0,0.0,93,0.00,,CLR,0.00,VWS V14.01,2013-02-11 09:36:00,
2013-02-11 04:40:00,19.7,18.0,30.28,WNW,291,0.0,0.0,93,0.00,,OVC040,0.00,VWS V14.01,2013-02-11 09:40:00,
2013-02-11 04:41:00,19.8,18.1,30.28,WNW,291,0.0,0.0,93,0.00,,CLR,0.00,VWS V14.01,2013-02-11 09:41:00,
2013-02-11 04:46:00,19.8,18.1,30.27,WNW,291,0.0,0.0,93,0.00,,CLR,0.00,VWS V14.01,2013-02-11 09:46:00,
2013-02-11 04:50:00,19.8,18.1,30.27,WNW,291,0.0,0.0,93,0.00,,OVC040,0.00,VWS V14.01,2013-02-11 09:50:00,
2013-02-11 04:51:00,19.9,18.2,30.27,WNW,291,0.0,0.0,93,0.00,,CLR,0.00,VWS V14.01,2013-02-11 09:51:00,
2013-02-11 04:56:00,20.0,18.3,30.27,WNW,291,0.0,0.0,93,0.00,,CLR,0.00,VWS V14.01,2013-02-11 09:56:00,
2013-02-11 05:00:00,20.1,18.4,30.27,WNW,290,0.0,0.0,93,0.00,,OVC040,0.00,VWS V14.01,2013-02-11 10:00:00,
2013-02-11 05:01:00,20.1,18.4,30.27,WNW,290,0.0,0.0,93,0.00,,CLR,0.00,VWS V14.01,2013-02-11 10:01:00,
2013-02-11 05:06:00,20.2,18.5,30.28,WNW,291,0.0,0.0,93,0.00,,CLR,0.00,VWS V14.01,2013-02-11 10:06:00,
2013-02-11 05:10:00,20.3,18.6,30.27,WNW,291,0.0,0.0,93,0.00,,OVC040,0.00,VWS V14.01,2013-02-11 10:10:00,
2013-02-11 05:11:00,20.4,18.7,30.27,WNW,292,0.0,0.0,93,0.00,,CLR,0.00,VWS V14.01,2013-02-11 10:11:00,
2013-02-11 05:16:00,20.4,18.7,30.27,WNW,291,0.0,0.0,93,0.00,,CLR,0.00,VWS V14.01,2013-02-11 10:16:00,
2013-02-11 05:20:00,20.5,18.8,30.27,WNW,290,0.0,0.0,93,0.00,,OVC040,0.00,VWS V14.01,2013-02-11 10:20:00,
2013-02-11 05:21:00,20.5,18.8,30.27,WNW,291,0.0,0.0,93,0.00,,CLR,0.00,VWS V14.01,2013-02-11 10:21:00,
2013-02-11 05:26:00,20.6,18.9,30.27,WNW,291,0.0,0.0,93,0.00,,CLR,0.00,VWS V14.01,2013-02-11 10:26:00,
2013-02-11 05:30:00,20.6,18.9,30.28,WNW,291,0.0,0.0,93,0.00,,OVC040,0.00,VWS V14.01,2013-02-11 10:30:00,
2013-02-11 05:31:00,20.7,19.0,30.28,WNW,292,0.0,0.0,93,0.00,,CLR,0.00,VWS V14.01,2013-02-11 10:31:00,
2013-02-11 05:36:00,20.8,19.1,30.27,WNW,291,0.0,0.0,93,0.00,,CLR,0.00,VWS V14.01,2013-02-11 10:36:00,
2013-02-11 05:40:00,20.8,19.1,30.27,WNW,291,0.0,0.0,93,0.00,,OVC040,0.00,VWS V14.01,2013-02-11 10:40:00,
2013-02-11 05:41:00,20.9,19.2,30.27,WNW,291,0.0,0.0,93,0.00,,CLR,0.00,VWS V14.01,2013-02-11 10:41:00,
2013-02-11 05:46:00,21.1,19.4,30.28,WNW,291,0.0,0.0,93,0.00,,CLR,0.00,VWS V14.01,2013-02-11 10:46:00,
2013-02-11 05:50:00,21.1,19.4,30.27,WNW,291,0.0,0.0,93,0.00,,OVC040,0.00,VWS V14.01,2013-02-11 10:50:00,
2013-02-11 05:51:00,21.2,19.5,30.27,WNW,291,0.0,0.0,93,0.00,,CLR,0.00,VWS V14.01,2013-02-11 10:51:00,
2013-02-11 05:56:00,21.2,19.5,30.27,WNW,291,0.0,0.0,93,0.00,,CLR,0.00,VWS V14.01,2013-02-11 10:56:00,
2013-02-11 06:00:00,21.3,19.6,30.27,WNW,291,0.0,0.0,93,0.00,,OVC040,0.00,VWS V14.01,2013-02-11 11:00:00,
2013-02-11 06:01:00,21.3,19.6,30.27,WNW,291,0.0,0.0,93,0.00,,BKN110,0.00,VWS V14.01,2013-02-11 11:01:00,
2013-02-11 06:06:00,21.5,19.8,30.27,WNW,291,0.0,0.0,93,0.00,,BKN110,0.00,VWS V14.01,2013-02-11 11:06:00,
2013-02-11 06:10:00,29.7,28.2,30.24,SE,128,0.0,5.0,94,0.00,,OVC070,0.00,VWS V14.01,2013-02-11 11:10:00,
2013-02-11 06:11:00,21.6,19.9,30.26,WNW,289,0.0,0.0,93,0.00,,BKN110,0.00,VWS V14.01,2013-02-11 11:11:00,
2013-02-11 06:16:00,21.7,20.0,30.26,WNW,291,0.0,0.0,93,0.00,,BKN110,0.00,VWS V14.01,2013-02-11 11:16:00,
2013-02-11 06:20:00,21.7,20.0,30.25,WNW,291,0.0,0.0,93,0.00,,OVC040,0.00,VWS V14.01,2013-02-11 11:20:00,
2013-02-11 06:21:00,21.8,20.1,30.25,WNW,291,0.0,0.0,93,0.00,,BKN110,0.00,VWS V14.01,2013-02-11 11:21:00,
2013-02-11 06:26:00,22.0,20.5,30.24,WNW,291,0.0,1.0,94,0.00,,BKN110,0.00,VWS V14.01,2013-02-11 11:26:00,
2013-02-11 06:30:00,22.1,20.6,30.24,WNW,291,0.0,1.0,94,0.00,,OVC040,0.00,VWS V14.01,2013-02-11 11:30:00,
2013-02-11 06:31:00,22.2,20.7,30.24,WNW,291,0.0,0.0,94,0.00,,BKN110,0.00,VWS V14.01,2013-02-11 11:31:00,
2013-02-11 06:36:00,23.3,22.3,30.25,SE,128,0.0,0.0,96,0.00,,BKN110,0.00,VWS V14.01,2013-02-11 11:36:00,
2013-02-11 06:40:00,23.6,22.1,30.25,SE,131,0.0,1.0,94,0.00,,OVC040,0.00,VWS V14.01,2013-02-11 11:40:00,
2013-02-11 06:41:00,23.6,22.1,30.25,SE,131,0.0,0.0,94,0.00,,BKN110,0.00,VWS V14.01,2013-02-11 11:41:00,
2013-02-11 06:46:00,23.9,22.7,30.24,SE,125,0.0,0.0,95,0.00,,BKN110,0.00,VWS V14.01,2013-02-11 11:46:00,
2013-02-11 06:50:00,33.2,30.0,30.22,SE,134,1.0,6.0,88,0.00,,OVC070,0.00,VWS V14.01,2013-02-11 11:50:00,
2013-02-11 06:51:00,25.0,24.0,30.24,East,101,1.0,1.0,96,0.00,,BKN110,0.00,VWS V14.01,2013-02-11 11:51:00,
2013-02-11 06:56:00,26.6,25.6,30.24,SSW,207,0.0,3.0,96,0.00,,BKN110,0.00,VWS V14.01,2013-02-11 11:56:00,
2013-02-11 07:00:00,27.5,26.5,30.24,SE,129,1.0,3.0,96,0.00,,OVC040,0.00,VWS V14.01,2013-02-11 12:00:00,
2013-02-11 07:01:00,27.8,26.8,30.24,SE,142,0.0,4.0,96,0.00,,OVC100,0.00,VWS V14.01,2013-02-11 12:01:00,
2013-02-11 07:06:00,29.0,27.8,30.24,ESE,105,0.0,4.0,95,0.00,,OVC100,0.00,VWS V14.01,2013-02-11 12:06:00,
2013-02-11 07:10:00,29.7,28.2,30.24,SE,128,0.0,5.0,94,0.00,,OVC040,0.00,VWS V14.01,2013-02-11 12:10:00,
2013-02-11 07:11:00,30.0,28.2,30.24,SE,135,0.0,3.0,93,0.00,,OVC100,0.00,VWS V14.01,2013-02-11 12:11:00,
2013-02-11 07:16:00,30.7,28.7,30.24,SE,124,0.0,5.0,92,0.00,,OVC100,0.00,VWS V14.01,2013-02-11 12:16:00,
2013-02-11 07:20:00,33.8,30.9,30.20,ESE,113,4.0,7.0,89,0.00,,OVC070,0.00,VWS V14.01,2013-02-11 12:20:00,
2013-02-11 07:21:00,31.3,28.7,30.24,SSW,207,1.0,3.0,90,0.00,,OVC100,0.00,VWS V14.01,2013-02-11 12:21:00,
2013-02-11 07:26:00,31.6,29.0,30.24,SE,136,8.0,8.0,90,0.00,,OVC100,0.00,VWS V14.01,2013-02-11 12:26:00,
2013-02-11 07:30:00,32.0,29.4,30.24,SE,134,2.0,8.0,90,0.00,,OVC040,0.00,VWS V14.01,2013-02-11 12:30:00,
2013-02-11 07:31:00,32.1,29.5,30.24,ESE,105,3.0,6.0,90,0.00,,OVC100,0.00,VWS V14.01,2013-02-11 12:31:00,
2013-02-11 07:36:00,32.5,29.6,30.23,SE,124,5.0,7.0,89,0.00,,OVC100,0.00,VWS V14.01,2013-02-11 12:36:00,
2013-02-11 07:40:00,32.8,29.9,30.23,ESE,106,3.0,8.0,89,0.00,,OVC040,0.00,VWS V14.01,2013-02-11 12:40:00,
2013-02-11 07:41:00,32.9,30.0,30.23,ESE,117,2.0,4.0,89,0.00,,OVC100,0.00,VWS V14.01,2013-02-11 12:41:00,
2013-02-11 07:46:00,33.1,29.9,30.22,SE,124,2.0,5.0,88,0.00,,OVC100,0.00,VWS V14.01,2013-02-11 12:46:00,
2013-02-11 07:50:00,33.2,30.0,30.22,SE,134,1.0,6.0,88,0.00,,OVC040,0.00,VWS V14.01,2013-02-11 12:50:00,
2013-02-11 07:51:00,33.2,30.0,30.22,ESE,108,1.0,4.0,88,0.00,,OVC100,0.00,VWS V14.01,2013-02-11 12:51:00,
2013-02-11 07:56:00,33.3,30.1,30.22,SE,146,3.0,5.0,88,0.00,,OVC100,0.00,VWS V14.01,2013-02-11 12:56:00,
2013-02-11 08:00:00,33.4,30.2,30.21,ESE,108,4.0,7.0,88,0.00,,OVC040,0.00,VWS V14.01,2013-02-11 13:00:00,
2013-02-11 08:01:00,33.4,30.5,30.21,SE,143,4.0,7.0,89,0.00,,OVC080,0.00,VWS V14.01,2013-02-11 13:01:00,
2013-02-11 08:06:00,33.5,30.6,30.21,ESE,118,2.0,7.0,89,0.00,,OVC080,0.00,VWS V14.01,2013-02-11 13:06:00,
2013-02-11 08:10:00,33.6,30.7,30.21,ESE,110,3.0,7.0,89,0.00,,OVC040,0.00,VWS V14.01,2013-02-11 13:10:00,
2013-02-11 08:11:00,33.7,30.8,30.21,East,84,2.0,6.0,89,0.00,,OVC080,0.00,VWS V14.01,2013-02-11 13:11:00,
2013-02-11 08:16:00,33.7,30.8,30.20,ESE,122,0.0,7.0,89,0.00,,OVC080,0.00,VWS V14.01,2013-02-11 13:16:00,
2013-02-11 08:20:00,33.8,30.9,30.20,ESE,113,4.0,7.0,89,0.00,,OVC040,0.00,VWS V14.01,2013-02-11 13:20:00,
2013-02-11 08:21:00,33.8,30.9,30.20,SE,146,4.0,7.0,89,0.00,,OVC080,0.00,VWS V14.01,2013-02-11 13:21:00,
2013-02-11 08:26:00,33.9,31.0,30.20,SE,135,3.0,9.0,89,0.00,,OVC080,0.00,VWS V14.01,2013-02-11 13:26:00,
2013-02-11 08:30:00,34.0,31.1,30.20,SE,129,2.0,9.0,89,0.00,,OVC040,0.00,VWS V14.01,2013-02-11 13:30:00,
2013-02-11 08:31:00,34.0,31.1,30.20,South,181,5.0,5.0,89,0.00,,OVC080,0.00,VWS V14.01,2013-02-11 13:31:00,
2013-02-11 08:36:00,34.0,31.1,30.20,ESE,113,3.0,7.0,89,0.00,,OVC080,0.00,VWS V14.01,2013-02-11 13:36:00,
2013-02-11 08:40:00,34.0,31.4,30.19,ESE,116,3.0,11.0,90,0.00,,OVC040,0.00,VWS V14.01,2013-02-11 13:40:00,
2013-02-11 08:41:00,34.1,31.5,30.19,East,86,2.0,5.0,90,0.00,,OVC080,0.00,VWS V14.01,2013-02-11 13:41:00,
2013-02-11 08:46:00,34.2,31.6,30.18,ESE,120,3.0,11.0,90,0.00,,OVC080,0.00,VWS V14.01,2013-02-11 13:46:00,
2013-02-11 08:50:00,34.3,32.0,30.18,ESE,113,4.0,11.0,91,0.00,,OVC040,0.00,VWS V14.01,2013-02-11 13:50:00,
2013-02-11 08:51:00,34.3,32.0,30.18,ESE,120,3.0,6.0,91,0.00,,OVC080,0.00,VWS V14.01,2013-02-11 13:51:00,
2013-02-11 08:56:00,34.7,32.3,30.18,ESE,103,7.0,8.0,91,0.00,,OVC080,0.00,VWS V14.01,2013-02-11 13:56:00,
2013-02-11 09:00:00,34.9,32.5,30.18,South,183,4.0,10.0,91,0.00,,OVC040,0.00,VWS V14.01,2013-02-11 14:00:00,
2013-02-11 09:01:00,34.9,32.5,30.17,East,80,3.0,6.0,91,0.00,,-RA,0.00,VWS V14.01,2013-02-11 14:01:00,
2013-02-11 09:06:00,35.1,32.7,30.17,South,181,2.0,10.0,91,0.00,,-RA,0.00,VWS V14.01,2013-02-11 14:06:00,
2013-02-11 09:10:00,35.1,32.7,30.16,SE,135,4.0,10.0,91,0.00,,OVC040,0.00,VWS V14.01,2013-02-11 14:10:00,
2013-02-11 09:11:00,35.2,32.8,30.16,SSE,149,4.0,12.0,91,0.00,,-RA,0.00,VWS V14.01,2013-02-11 14:11:00,
2013-02-11 09:16:00,35.4,33.0,30.16,ESE,117,4.0,12.0,91,0.00,,-RA,0.00,VWS V14.01,2013-02-11 14:16:00,
2013-02-11 09:20:00,35.5,33.1,30.15,SSE,167,3.0,12.0,91,0.00,,OVC040,0.00,VWS V14.01,2013-02-11 14:20:00,
2013-02-11 09:21:00,35.6,33.2,30.15,ESE,120,5.0,6.0,91,0.00,,-RA,0.00,VWS V14.01,2013-02-11 14:21:00,
2013-02-11 09:26:00,35.7,33.3,30.15,SE,127,4.0,9.0,91,0.00,,-RA,0.00,VWS V14.01,2013-02-11 14:26:00,
2013-02-11 09:30:00,35.8,33.7,30.15,SE,128,3.0,9.0,92,0.00,,OVC040,0.00,VWS V14.01,2013-02-11 14:30:00,
2013-02-11 09:31:00,35.8,33.7,30.15,SSE,149,3.0,7.0,92,0.00,,-RA,0.00,VWS V14.01,2013-02-11 14:31:00,
2013-02-11 09:36:00,35.9,33.8,30.15,SE,141,6.0,11.0,92,0.00,,-RA,0.00,VWS V14.01,2013-02-11 14:36:00,
2013-02-11 09:40:00,36.0,33.9,30.14,SSE,148,4.0,11.0,92,0.00,,OVC040,0.00,VWS V14.01,2013-02-11 14:40:00,
2013-02-11 09:41:00,36.0,33.9,30.14,ESE,118,6.0,12.0,92,0.00,,-RA,0.00,VWS V14.01,2013-02-11 14:41:00,
2013-02-11 09:46:00,36.1,34.0,30.13,ESE,112,4.0,12.0,92,0.00,,-RA,0.00,VWS V14.01,2013-02-11 14:46:00,
2013-02-11 09:50:00,36.1,34.0,30.12,ESE,110,6.0,12.0,92,0.00,,OVC040,0.00,VWS V14.01,2013-02-11 14:50:00,
2013-02-11 09:51:00,36.1,34.0,30.12,ESE,103,6.0,8.0,92,0.00,,-RA,0.00,VWS V14.01,2013-02-11 14:51:00,
2013-02-11 09:56:00,36.2,34.1,30.12,ESE,102,4.0,13.0,92,0.00,,-RA,0.00,VWS V14.01,2013-02-11 14:56:00,
2013-02-11 10:00:00,36.2,34.1,30.12,ESE,107,2.0,13.0,92,0.00,,OVC040,0.00,VWS V14.01,2013-02-11 15:00:00,
2013-02-11 10:01:00,36.1,34.0,30.11,SE,142,2.0,8.0,92,0.00,,-RA,0.00,VWS V14.01,2013-02-11 15:01:00,
2013-02-11 10:06:00,36.1,34.0,30.11,SE,128,9.0,9.0,92,0.00,,-RA,0.00,VWS V14.01,2013-02-11 15:06:00,
2013-02-11 10:10:00,36.1,34.3,30.10,ESE,118,9.0,14.0,93,0.00,,OVC040,0.00,VWS V14.01,2013-02-11 15:10:00,
2013-02-11 10:11:00,36.1,34.3,30.10,ESE,110,4.0,9.0,93,0.00,,-RA,0.00,VWS V14.01,2013-02-11 15:11:00,
2013-02-11 10:16:00,36.0,34.2,30.09,SE,131,5.0,9.0,93,0.00,,-RA,0.00,VWS V14.01,2013-02-11 15:16:00,
2013-02-11 10:20:00,36.0,34.2,30.09,East,89,6.0,11.0,93,0.00,,OVC040,0.00,VWS V14.01,2013-02-11 15:20:00,
2013-02-11 10:21:00,36.1,34.3,30.09,ESE,116,5.0,11.0,93,0.00,,-RA,0.00,VWS V14.01,2013-02-11 15:21:00,
2013-02-11 10:26:00,36.2,34.4,30.09,ESE,110,4.0,11.0,93,0.00,,-RA,0.00,VWS V14.01,2013-02-11 15:26:00,
2013-02-11 10:30:00,36.3,34.5,30.08,ESE,112,4.0,11.0,93,0.00,,OVC040,0.00,VWS V14.01,2013-02-11 15:30:00,
2013-02-11 10:31:00,36.4,34.6,30.08,ESE,108,6.0,7.0,93,0.00,,-RA,0.00,VWS V14.01,2013-02-11 15:31:00,
2013-02-11 10:36:00,36.6,35.0,30.08,ESE,110,2.0,9.0,94,0.00,,-RA,0.00,VWS V14.01,2013-02-11 15:36:00,
2013-02-11 10:40:00,36.8,35.2,30.08,East,87,4.0,10.0,94,0.00,,OVC040,0.00,VWS V14.01,2013-02-11 15:40:00,
2013-02-11 10:41:00,36.8,35.2,30.07,SE,133,6.0,7.0,94,0.00,,-RA,0.00,VWS V14.01,2013-02-11 15:41:00,
2013-02-11 10:46:00,37.1,35.5,30.07,SE,125,7.0,9.0,94,0.00,,-RA,0.00,VWS V14.01,2013-02-11 15:46:00,
2013-02-11 10:50:00,37.4,35.8,30.06,East,88,4.0,9.0,94,0.00,,OVC040,0.00,VWS V14.01,2013-02-11 15:50:00,
2013-02-11 10:51:00,37.5,35.9,30.06,SE,124,3.0,8.0,94,0.00,,-RA,0.00,VWS V14.01,2013-02-11 15:51:00,
2013-02-11 10:56:00,37.7,36.1,30.05,SE,135,4.0,10.0,94,0.00,,-RA,0.00,VWS V14.01,2013-02-11 15:56:00,
2013-02-11 11:00:00,37.9,36.3,30.05,East,94,3.0,10.0,94,0.00,,OVC040,0.00,VWS V14.01,2013-02-11 16:00:00,
2013-02-11 11:01:00,37.9,36.3,30.05,SE,138,4.0,4.0,94,0.00,,-RA,0.00,VWS V14.01,2013-02-11 16:01:00,
2013-02-11 11:06:00,38.0,36.4,30.04,ESE,113,5.0,7.0,94,0.00,,-RA,0.00,VWS V14.01,2013-02-11 16:06:00,
2013-02-11 11:10:00,38.1,36.5,30.04,East,87,7.0,8.0,94,0.00,,OVC040,0.00,VWS V14.01,2013-02-11 16:10:00,
2013-02-11 11:11:00,38.1,36.5,30.04,SE,146,4.0,7.0,94,0.00,,-RA,0.00,VWS V14.01,2013-02-11 16:11:00,
2013-02-11 11:16:00,38.1,36.5,30.03,SSE,147,4.0,10.0,94,0.00,,-RA,0.00,VWS V14.01,2013-02-11 16:16:00,
2013-02-11 11:20:00,38.1,36.5,30.03,SE,141,2.0,10.0,94,0.00,,OVC040,0.00,VWS V14.01,2013-02-11 16:20:00,
2013-02-11 11:21:00,38.1,36.5,30.02,SSE,152,6.0,8.0,94,0.00,,-RA,0.00,VWS V14.01,2013-02-11 16:21:00,
2013-02-11 11:26:00,38.1,36.5,30.02,SE,142,7.0,9.0,94,0.00,,-RA,0.00,VWS V14.01,2013-02-11 16:26:00,
2013-02-11 11:30:00,38.2,36.6,30.02,ESE,107,5.0,11.0,94,0.00,,OVC040,0.00,VWS V14.01,2013-02-11 16:30:00,
2013-02-11 11:31:00,38.2,36.6,30.02,SSW,201,4.0,7.0,94,0.00,,-RA,0.00,VWS V14.01,2013-02-11 16:31:00,
2013-02-11 11:36:00,38.3,36.7,30.01,ESE,114,3.0,8.0,94,0.00,,-RA,0.00,VWS V14.01,2013-02-11 16:36:00,
2013-02-11 11:40:00,38.4,37.1,30.01,SE,141,5.0,9.0,95,0.00,,OVC040,0.00,VWS V14.01,2013-02-11 16:40:00,
2013-02-11 11:41:00,38.5,37.2,30.00,SSE,165,6.0,7.0,95,0.00,,-RA,0.00,VWS V14.01,2013-02-11 16:41:00,
2013-02-11 11:46:00,38.6,37.3,30.00,SSE,155,1.0,9.0,95,0.00,,-RA,0.00,VWS V14.01,2013-02-11 16:46:00,
2013-02-11 11:50:00,38.8,37.5,30.00,SE,138,5.0,10.0,95,0.00,,OVC040,0.00,VWS V14.01,2013-02-11 16:50:00,
2013-02-11 11:51:00,38.9,37.6,29.99,SSW,198,6.0,13.0,95,0.00,,-RA,0.00,VWS V14.01,2013-02-11 16:51:00,
2013-02-11 11:56:00,39.1,37.8,29.98,South,179,4.0,13.0,95,0.00,,-RA,0.00,VWS V14.01,2013-02-11 16:56:00,
2013-02-11 12:00:00,39.1,37.8,29.98,ESE,118,5.0,13.0,95,0.00,,OVC040,0.00,VWS V14.01,2013-02-11 17:00:00,
2013-02-11 12:01:00,39.1,37.8,29.98,South,172,7.0,10.0,95,0.00,,-RA,0.00,VWS V14.01,2013-02-11 17:01:00,
2013-02-11 12:06:00,39.2,37.9,29.97,SSW,197,1.0,14.0,95,0.01,,-RA,0.01,VWS V14.01,2013-02-11 17:06:00,
2013-02-11 12:10:00,39.3,38.0,29.97,SE,139,5.0,14.0,95,0.02,,OVC040,0.02,VWS V14.01,2013-02-11 17:10:00,
2013-02-11 12:11:00,39.3,38.0,29.97,SE,142,5.0,11.0,95,0.02,,-RA,0.02,VWS V14.01,2013-02-11 17:11:00,
2013-02-11 12:16:00,39.7,38.7,29.97,SE,131,7.0,13.0,96,0.04,,-RA,0.04,VWS V14.01,2013-02-11 17:16:00,
2013-02-11 12:20:00,39.8,38.8,29.96,SSE,160,5.0,15.0,96,0.06,,OVC040,0.06,VWS V14.01,2013-02-11 17:20:00,
2013-02-11 12:21:00,39.8,38.8,29.96,SE,125,6.0,11.0,96,0.06,,-RA,0.06,VWS V14.01,2013-02-11 17:21:00,
2013-02-11 12:26:00,39.9,38.8,29.95,SSE,148,4.0,19.0,96,0.09,,-RA,0.09,VWS V14.01,2013-02-11 17:26:00,
2013-02-11 12:30:00,39.9,38.8,29.95,South,186,4.0,19.0,96,0.10,,OVC040,0.10,VWS V14.01,2013-02-11 17:30:00,
2013-02-11 12:31:00,39.9,38.8,29.95,SSE,152,6.0,11.0,96,0.11,,-RA,0.11,VWS V14.01,2013-02-11 17:31:00,
2013-02-11 12:36:00,39.8,38.8,29.94,ESE,120,5.0,13.0,96,0.12,,-RA,0.12,VWS V14.01,2013-02-11 17:36:00,
2013-02-11 12:40:00,39.8,38.8,29.94,SE,128,5.0,16.0,96,0.14,,OVC040,0.14,VWS V14.01,2013-02-11 17:40:00,
2013-02-11 12:41:00,39.8,38.8,29.93,SSE,157,11.0,16.0,96,0.14,,-RA,0.14,VWS V14.01,2013-02-11 17:41:00,
2013-02-11 12:46:00,39.7,38.7,29.93,NW,309,1.0,16.0,96,0.16,,-RA,0.16,VWS V14.01,2013-02-11 17:46:00,
2013-02-11 12:50:00,39.6,38.6,29.93,SSE,150,5.0,16.0,96,0.17,,OVC040,0.17,VWS V14.01,2013-02-11 17:50:00,
2013-02-11 12:51:00,39.5,38.5,29.93,SSE,159,5.0,7.0,96,0.17,,-RA,0.17,VWS V14.01,2013-02-11 17:51:00,
2013-02-11 12:56:00,39.7,38.7,29.92,SSE,168,6.0,12.0,96,0.19,,-RA,0.19,VWS V14.01,2013-02-11 17:56:00,
2013-02-11 13:00:00,40.0,39.2,29.92,SE,128,8.0,12.0,97,0.20,,OVC040,0.20,VWS V14.01,2013-02-11 18:00:00,
2013-02-11 13:01:00,40.1,39.3,29.92,SE,143,12.0,12.0,97,0.21,,-RA,0.21,VWS V14.01,2013-02-11 18:01:00,
2013-02-11 13:06:00,40.6,39.8,29.91,South,184,13.0,14.0,97,0.22,,-RA,0.22,VWS V14.01,2013-02-11 18:06:00,
2013-02-11 13:10:00,40.9,40.1,29.91,SE,124,9.0,18.0,97,0.22,,OVC040,0.22,VWS V14.01,2013-02-11 18:10:00,
2013-02-11 13:11:00,41.0,40.2,29.91,SSE,149,2.0,9.0,97,0.20,,-RA,0.22,VWS V14.01,2013-02-11 18:11:00,
2013-02-11 13:16:00,41.1,40.3,29.90,SSW,201,8.0,16.0,97,0.22,,-RA,0.24,VWS V14.01,2013-02-11 18:16:00,
2013-02-11 13:20:00,41.3,40.5,29.90,South,172,12.0,16.0,97,0.22,,OVC040,0.24,VWS V14.01,2013-02-11 18:20:00,
2013-02-11 13:21:00,41.3,40.5,29.90,South,184,5.0,15.0,97,0.18,,-RA,0.24,VWS V14.01,2013-02-11 18:21:00,
2013-02-11 13:26:00,41.4,40.6,29.90,East,87,4.0,15.0,97,0.19,,-RA,0.25,VWS V14.01,2013-02-11 18:26:00,
2013-02-11 13:30:00,41.4,40.6,29.90,SSE,155,4.0,18.0,97,0.20,,OVC040,0.26,VWS V14.01,2013-02-11 18:30:00,
2013-02-11 13:31:00,41.5,40.7,29.89,SW,214,7.0,10.0,97,0.17,,-RA,0.27,VWS V14.01,2013-02-11 18:31:00,
2013-02-11 13:36:00,41.6,40.8,29.89,South,180,8.0,16.0,97,0.18,,-RA,0.28,VWS V14.01,2013-02-11 18:36:00,
2013-02-11 13:40:00,41.7,40.9,29.89,SSW,204,16.0,17.0,97,0.18,,OVC040,0.28,VWS V14.01,2013-02-11 18:40:00,
2013-02-11 13:41:00,41.7,40.9,29.88,SSE,166,10.0,16.0,97,0.14,,-RA,0.28,VWS V14.01,2013-02-11 18:41:00,
2013-02-11 13:46:00,41.8,41.0,29.88,ESE,117,9.0,17.0,97,0.15,,-RA,0.29,VWS V14.01,2013-02-11 18:46:00,
2013-02-11 13:50:00,41.9,41.1,29.88,SSW,205,7.0,17.0,97,0.15,,OVC040,0.29,VWS V14.01,2013-02-11 18:50:00,
2013-02-11 13:51:00,41.9,41.1,29.87,SE,142,13.0,16.0,97,0.12,,-RA,0.29,VWS V14.01,2013-02-11 18:51:00,
2013-02-11 13:56:00,42.1,41.6,29.87,SW,221,2.0,16.0,98,0.12,,-RA,0.29,VWS V14.01,2013-02-11 18:56:00,
2013-02-11 14:00:00,42.0,41.2,29.86,South,170,4.0,16.0,97,0.13,,OVC040,0.30,VWS V14.01,2013-02-11 19:00:00,
2013-02-11 14:01:00,42.0,41.2,29.86,SE,139,5.0,10.0,97,0.10,,-RA,0.30,VWS V14.01,2013-02-11 19:01:00,
2013-02-11 14:06:00,41.9,41.1,29.86,South,184,4.0,11.0,97,0.11,,-RA,0.31,VWS V14.01,2013-02-11 19:06:00,
2013-02-11 14:10:00,41.9,41.1,29.86,WSW,253,4.0,11.0,97,0.11,,OVC040,0.31,VWS V14.01,2013-02-11 19:10:00,
2013-02-11 14:11:00,41.9,41.1,29.86,SSW,207,10.0,10.0,97,0.09,,-RA,0.31,VWS V14.01,2013-02-11 19:11:00,
2013-02-11 14:16:00,42.1,41.6,29.85,SSE,149,9.0,13.0,98,0.09,,-RA,0.31,VWS V14.01,2013-02-11 19:16:00,
2013-02-11 14:20:00,42.2,41.7,29.85,SSW,205,3.0,14.0,98,0.09,,OVC040,0.31,VWS V14.01,2013-02-11 19:20:00,
2013-02-11 14:21:00,42.3,41.8,29.85,SW,215,0.0,9.0,98,0.08,,-RA,0.32,VWS V14.01,2013-02-11 19:21:00,
2013-02-11 14:26:00,42.3,41.8,29.84,SSE,158,6.0,10.0,98,0.09,,-RA,0.33,VWS V14.01,2013-02-11 19:26:00,
2013-02-11 14:30:00,42.5,42.0,29.84,South,190,3.0,12.0,98,0.09,,OVC040,0.33,VWS V14.01,2013-02-11 19:30:00,
2013-02-11 14:31:00,42.6,42.1,29.84,SSE,157,13.0,13.0,98,0.07,,-RA,0.33,VWS V14.01,2013-02-11 19:31:00,
2013-02-11 14:36:00,42.8,42.3,29.84,South,172,6.0,14.0,98,0.08,,-RA,0.34,VWS V14.01,2013-02-11 19:36:00,
2013-02-11 14:40:00,42.7,42.2,29.84,South,191,5.0,14.0,98,0.08,,OVC040,0.34,VWS V14.01,2013-02-11 19:40:00,
2013-02-11 14:41:00,42.7,42.2,29.83,SSW,197,10.0,14.0,98,0.07,,-RA,0.35,VWS V14.01,2013-02-11 19:41:00,
2013-02-11 14:46:00,42.7,42.2,29.82,SSE,163,4.0,14.0,98,0.07,,-RA,0.35,VWS V14.01,2013-02-11 19:46:00,
2013-02-11 14:50:00,42.7,42.2,29.82,SSW,207,6.0,14.0,98,0.08,,OVC040,0.36,VWS V14.01,2013-02-11 19:50:00,
2013-02-11 14:51:00,42.8,42.3,29.82,SSE,162,6.0,11.0,98,0.07,,-RA,0.36,VWS V14.01,2013-02-11 19:51:00,
2013-02-11 14:56:00,42.9,42.4,29.82,SSE,167,7.0,15.0,98,0.07,,-RA,0.36,VWS V14.01,2013-02-11 19:56:00,
2013-02-11 15:00:00,42.9,42.4,29.82,West,260,2.0,15.0,98,0.07,,OVC040,0.36,VWS V14.01,2013-02-11 20:00:00,
2013-02-11 15:01:00,42.9,42.4,29.81,South,169,4.0,9.0,98,0.06,,,0.36,VWS V14.01,2013-02-11 20:01:00,
2013-02-11 15:06:00,42.9,42.4,29.81,SSE,168,9.0,12.0,98,0.07,,,0.37,VWS V14.01,2013-02-11 20:06:00,
2013-02-11 15:10:00,42.9,42.4,29.81,South,177,8.0,14.0,98,0.07,,OVC040,0.37,VWS V14.01,2013-02-11 20:10:00,
2013-02-11 15:11:00,42.9,42.4,29.81,SSW,199,6.0,13.0,98,0.06,,,0.37,VWS V14.01,2013-02-11 20:11:00,
2013-02-11 15:16:00,42.7,42.2,29.81,South,187,13.0,15.0,98,0.07,,,0.38,VWS V14.01,2013-02-11 20:16:00,
2013-02-11 15:20:00,42.5,42.0,29.80,SSE,165,9.0,15.0,98,0.07,,OVC040,0.38,VWS V14.01,2013-02-11 20:20:00,
2013-02-11 15:21:00,42.6,42.1,29.79,South,186,5.0,12.0,98,0.07,,,0.38,VWS V14.01,2013-02-11 20:21:00,
2013-02-11 15:26:00,42.8,42.3,29.79,SSW,210,7.0,15.0,98,0.07,,,0.38,VWS V14.01,2013-02-11 20:26:00,
2013-02-11 15:30:00,42.9,42.4,29.79,South,180,9.0,15.0,98,0.07,,OVC040,0.38,VWS V14.01,2013-02-11 20:30:00,
2013-02-11 15:31:00,43.0,42.5,29.79,SSW,198,15.0,20.0,98,0.05,,,0.38,VWS V14.01,2013-02-11 20:31:00,
2013-02-11 15:36:00,43.3,42.8,29.79,SSE,158,6.0,20.0,98,0.05,,,0.38,VWS V14.01,2013-02-11 20:36:00,
2013-02-11 15:40:00,43.4,42.9,29.79,East,96,1.0,20.0,98,0.05,,OVC040,0.38,VWS V14.01,2013-02-11 20:40:00,
2013-02-11 15:41:00,43.4,42.9,29.79,SSW,205,2.0,13.0,98,0.04,,,0.38,VWS V14.01,2013-02-11 20:41:00,
2013-02-11 15:46:00,43.6,43.1,29.79,South,174,6.0,15.0,98,0.06,,,0.40,VWS V14.01,2013-02-11 20:46:00,
2013-02-11 15:50:00,43.6,43.1,29.79,West,269,3.0,15.0,98,0.06,,OVC040,0.40,VWS V14.01,2013-02-11 20:50:00,
2013-02-11 15:51:00,43.6,43.1,29.79,SE,141,4.0,11.0,98,0.05,,,0.41,VWS V14.01,2013-02-11 20:51:00,
2013-02-11 15:56:00,43.6,43.1,29.78,SSW,195,3.0,11.0,98,0.05,,,0.41,VWS V14.01,2013-02-11 20:56:00,
2013-02-11 16:00:00,43.9,43.4,29.78,SSW,212,5.0,12.0,98,0.05,,OVC040,0.41,VWS V14.01,2013-02-11 21:00:00,
2013-02-11 16:01:00,44.0,43.7,29.78,ESE,111,4.0,12.0,99,0.05,,RA,0.41,VWS V14.01,2013-02-11 21:01:00,
2013-02-11 16:06:00,44.3,44.0,29.77,SW,228,3.0,12.0,99,0.05,,RA,0.41,VWS V14.01,2013-02-11 21:06:00,
2013-02-11 16:10:00,44.3,44.0,29.78,South,187,6.0,12.0,99,0.05,,OVC040,0.41,VWS V14.01,2013-02-11 21:10:00,
2013-02-11 16:11:00,44.4,44.1,29.77,SSW,201,7.0,11.0,99,0.04,,RA,0.41,VWS V14.01,2013-02-11 21:11:00,
2013-02-11 16:16:00,44.4,44.1,29.77,SSW,195,6.0,11.0,99,0.04,,RA,0.41,VWS V14.01,2013-02-11 21:16:00,
2013-02-11 16:20:00,44.4,44.1,29.77,SW,218,5.0,11.0,99,0.05,,OVC040,0.42,VWS V14.01,2013-02-11 21:20:00,
2013-02-11 16:21:00,44.5,44.2,29.77,West,263,5.0,6.0,99,0.04,,RA,0.42,VWS V14.01,2013-02-11 21:21:00,
2013-02-11 16:26:00,44.4,43.9,29.77,WSW,239,4.0,10.0,98,0.04,,RA,0.42,VWS V14.01,2013-02-11 21:26:00,
2013-02-11 16:30:00,44.4,43.9,29.77,WSW,255,0.0,10.0,98,0.04,,OVC040,0.42,VWS V14.01,2013-02-11 21:30:00,
2013-02-11 16:31:00,44.4,43.9,29.76,SW,218,2.0,8.0,98,0.04,,RA,0.42,VWS V14.01,2013-02-11 21:31:00,
2013-02-11 16:36:00,44.5,44.0,29.76,WSW,255,2.0,8.0,98,0.05,,RA,0.43,VWS V14.01,2013-02-11 21:36:00,
2013-02-11 16:40:00,44.6,44.3,29.76,SW,218,5.0,10.0,99,0.05,,OVC040,0.43,VWS V14.01,2013-02-11 21:40:00,
2013-02-11 16:41:00,44.7,44.4,29.76,SW,229,3.0,10.0,99,0.05,,RA,0.43,VWS V14.01,2013-02-11 21:41:00,
2013-02-11 16:46:00,44.8,44.5,29.75,WSW,249,3.0,10.0,99,0.05,,RA,0.43,VWS V14.01,2013-02-11 21:46:00,
2013-02-11 16:50:00,45.0,44.7,29.75,WSW,250,6.0,10.0,99,0.05,,OVC040,0.43,VWS V14.01,2013-02-11 21:50:00,
2013-02-11 16:51:00,45.0,44.7,29.75,SW,218,6.0,7.0,99,0.03,,RA,0.43,VWS V14.01,2013-02-11 21:51:00,
2013-02-11 16:56:00,45.2,44.9,29.75,SW,225,3.0,12.0,99,0.03,,RA,0.43,VWS V14.01,2013-02-11 21:56:00,
2013-02-11 17:00:00,45.2,44.9,29.75,WSW,257,9.0,12.0,99,0.03,,OVC040,0.43,VWS V14.01,2013-02-11 22:00:00,
2013-02-11 17:01:00,45.3,45.0,29.75,SW,233,2.0,11.0,99,0.02,,,0.43,VWS V14.01,2013-02-11 22:01:00,
2013-02-11 17:06:00,45.2,44.9,29.74,SSW,211,2.0,11.0,99,0.02,,,0.43,VWS V14.01,2013-02-11 22:06:00,
2013-02-11 17:10:00,45.3,45.0,29.74,SW,224,6.0,11.0,99,0.02,,OVC040,0.43,VWS V14.01,2013-02-11 22:10:00,
2013-02-11 17:11:00,45.4,45.1,29.74,SSE,160,7.0,10.0,99,0.02,,,0.43,VWS V14.01,2013-02-11 22:11:00,
2013-02-11 17:16:00,45.3,45.0,29.74,SSW,200,4.0,10.0,99,0.02,,,0.43,VWS V14.01,2013-02-11 22:16:00,
2013-02-11 17:20:00,45.3,45.0,29.73,WSW,254,3.0,10.0,99,0.02,,OVC040,0.43,VWS V14.01,2013-02-11 22:20:00,
2013-02-11 17:21:00,45.3,45.0,29.74,WSW,253,6.0,9.0,99,0.01,,,0.43,VWS V14.01,2013-02-11 22:21:00,
2013-02-11 17:26:00,45.2,44.9,29.74,South,188,3.0,9.0,99,0.01,,,0.43,VWS V14.01,2013-02-11 22:26:00,
2013-02-11 17:30:00,45.2,44.9,29.73,SW,214,3.0,9.0,99,0.01,,OVC040,0.43,VWS V14.01,2013-02-11 22:30:00,
2013-02-11 17:31:00,45.2,44.9,29.73,SW,215,3.0,4.0,99,0.01,,,0.43,VWS V14.01,2013-02-11 22:31:00,
2013-02-11 17:36:00,45.2,44.9,29.73,SSE,150,3.0,5.0,99,0.01,,,0.43,VWS V14.01,2013-02-11 22:36:00,
2013-02-11 17:40:00,45.3,45.0,29.73,WSW,245,0.0,5.0,99,0.01,,OVC040,0.43,VWS V14.01,2013-02-11 22:40:00,
2013-02-11 17:41:00,45.3,45.0,29.73,WSW,258,3.0,4.0,99,0.00,,,0.43,VWS V14.01,2013-02-11 22:41:00,
2013-02-11 17:46:00,45.2,44.9,29.73,SSE,160,2.0,5.0,99,0.00,,,0.43,VWS V14.01,2013-02-11 22:46:00,
2013-02-11 17:50:00,45.2,44.9,29.73,SW,226,2.0,5.0,99,0.01,,OVC040,0.44,VWS V14.01,2013-02-11 22:50:00,
2013-02-11 17:51:00,45.3,45.0,29.73,SSW,203,1.0,3.0,99,0.01,,,0.44,VWS V14.01,2013-02-11 22:51:00,
2013-02-11 17:56:00,45.4,45.1,29.72,SSW,196,4.0,7.0,99,0.01,,,0.44,VWS V14.01,2013-02-11 22:56:00,
2013-02-11 18:00:00,45.4,45.1,29.72,South,176,1.0,7.0,99,0.01,,OVC040,0.44,VWS V14.01,2013-02-11 23:00:00,
2013-02-11 18:01:00,45.4,45.1,29.72,SE,131,1.0,5.0,99,0.01,,,0.44,VWS V14.01,2013-02-11 23:01:00,
2013-02-11 18:06:00,45.3,45.0,29.72,WSW,243,7.0,7.0,99,0.01,,,0.44,VWS V14.01,2013-02-11 23:06:00,
2013-02-11 18:10:00,45.4,45.1,29.73,SW,215,2.0,8.0,99,0.01,,OVC040,0.44,VWS V14.01,2013-02-11 23:10:00,
2013-02-11 18:11:00,45.4,45.1,29.74,SSE,160,3.0,7.0,99,0.01,,,0.44,VWS V14.01,2013-02-11 23:11:00,
2013-02-11 18:16:00,45.5,45.2,29.73,West,280,2.0,9.0,99,0.01,,,0.44,VWS V14.01,2013-02-11 23:16:00,
2013-02-11 18:20:00,45.6,45.3,29.74,West,262,8.0,12.0,99,0.01,,OVC040,0.44,VWS V14.01,2013-02-11 23:20:00,
2013-02-11 18:21:00,45.7,45.4,29.74,SSW,205,3.0,15.0,99,0.01,,,0.44,VWS V14.01,2013-02-11 23:21:00,
2013-02-11 18:26:00,45.7,45.4,29.72,SSW,202,4.0,15.0,99,0.01,,,0.44,VWS V14.01,2013-02-11 23:26:00,
2013-02-11 18:30:00,45.8,45.5,29.72,West,263,7.0,15.0,99,0.01,,OVC040,0.44,VWS V14.01,2013-02-11 23:30:00,
2013-02-11 18:31:00,45.7,45.4,29.72,South,184,10.0,10.0,99,0.02,,,0.45,VWS V14.01,2013-02-11 23:31:00,
2013-02-11 18:36:00,45.7,45.4,29.71,SW,215,5.0,11.0,99,0.02,,,0.45,VWS V14.01,2013-02-11 23:36:00,
2013-02-11 18:40:00,45.8,45.5,29.70,West,277,3.0,11.0,99,0.02,,OVC040,0.45,VWS V14.01,2013-02-11 23:40:00,
2013-02-11 18:41:00,45.7,45.4,29.70,West,264,4.0,8.0,99,0.02,,,0.45,VWS V14.01,2013-02-11 23:41:00,
2013-02-11 18:46:00,45.6,45.3,29.71,NNW,329,2.0,8.0,99,0.02,,,0.45,VWS V14.01,2013-02-11 23:46:00,
2013-02-11 18:50:00,45.6,45.3,29.71,SSW,199,5.0,9.0,99,0.02,,OVC040,0.45,VWS V14.01,2013-02-11 23:50:00,
2013-02-11 18:51:00,45.6,45.3,29.71,West,260,3.0,8.0,99,0.01,,,0.45,VWS V14.01,2013-02-11 23:51:00,
2013-02-11 18:56:00,45.6,45.3,29.71,SW,218,4.0,8.0,99,0.01,,,0.45,VWS V14.01,2013-02-11 23:56:00,
2013-02-11 19:00:00,45.6,45.3,29.71,West,264,2.0,8.0,99,0.01,,OVC040,0.45,VWS V14.01,2013-02-12 00:00:00,
2013-02-11 19:01:00,45.6,45.3,29.71,WSW,248,3.0,5.0,99,0.01,,,0.45,VWS V14.01,2013-02-12 00:01:00,
2013-02-11 19:06:00,45.6,45.3,29.71,SW,234,3.0,11.0,99,0.01,,,0.45,VWS V14.01,2013-02-12 00:06:00,
2013-02-11 19:10:00,45.5,45.2,29.71,WSW,252,5.0,11.0,99,0.01,,OVC040,0.45,VWS V14.01,2013-02-12 00:10:00,
2013-02-11 19:11:00,45.4,45.1,29.71,WSW,246,5.0,7.0,99,0.01,,,0.45,VWS V14.01,2013-02-12 00:11:00,
2013-02-11 19:16:00,45.4,45.1,29.70,West,274,7.0,11.0,99,0.01,,,0.45,VWS V14.01,2013-02-12 00:16:00,
2013-02-11 19:20:00,45.4,45.1,29.70,West,274,2.0,11.0,99,0.01,,OVC040,0.45,VWS V14.01,2013-02-12 00:20:00,
2013-02-11 19:21:00,45.3,45.0,29.70,WNW,285,2.0,7.0,99,0.01,,,0.45,VWS V14.01,2013-02-12 00:21:00,
2013-02-11 19:26:00,45.2,44.9,29.70,WSW,255,2.0,9.0,99,0.01,,,0.45,VWS V14.01,2013-02-12 00:26:00,
2013-02-11 19:30:00,45.1,44.8,29.69,SW,229,6.0,9.0,99,0.01,,OVC040,0.45,VWS V14.01,2013-02-12 00:30:00,
2013-02-11 19:31:00,45.1,44.8,29.69,West,267,1.0,6.0,99,0.01,,,0.45,VWS V14.01,2013-02-12 00:31:00,
2013-02-11 19:36:00,45.0,44.7,29.69,SW,222,4.0,7.0,99,0.01,,,0.45,VWS V14.01,2013-02-12 00:36:00,
2013-02-11 19:40:00,45.0,44.7,29.69,WNW,286,1.0,7.0,99,0.01,,OVC040,0.45,VWS V14.01,2013-02-12 00:40:00,
2013-02-11 19:41:00,45.0,44.7,29.69,SW,236,0.0,3.0,99,0.00,,,0.45,VWS V14.01,2013-02-12 00:41:00,
2013-02-11 19:46:00,44.9,44.6,29.68,WSW,252,4.0,7.0,99,0.00,,,0.45,VWS V14.01,2013-02-12 00:46:00,
2013-02-11 19:50:00,44.8,44.5,29.68,WSW,248,6.0,7.0,99,0.00,,OVC040,0.45,VWS V14.01,2013-02-12 00:50:00,
2013-02-11 19:51:00,44.8,44.5,29.68,WSW,256,1.0,8.0,99,0.00,,,0.45,VWS V14.01,2013-02-12 00:51:00,
2013-02-11 19:56:00,44.8,44.5,29.68,West,267,2.0,8.0,99,0.00,,,0.45,VWS V14.01,2013-02-12 00:56:00,
2013-02-11 20:00:00,44.7,44.4,29.68,WSW,243,1.0,8.0,99,0.00,,OVC040,0.45,VWS V14.01,2013-02-12 01:00:00,
2013-02-11 20:01:00,44.7,44.4,29.68,WSW,255,3.0,4.0,99,0.00,,,0.45,VWS V14.01,2013-02-12 01:01:00,
2013-02-11 20:06:00,44.7,44.4,29.67,South,190,3.0,6.0,99,0.00,,,0.45,VWS V14.01,2013-02-12 01:06:00,
2013-02-11 20:10:00,44.6,44.3,29.67,SSW,197,2.0,6.0,99,0.00,,OVC040,0.45,VWS V14.01,2013-02-12 01:10:00,
2013-02-11 20:11:00,44.6,44.3,29.67,SSW,205,2.0,5.0,99,0.00,,,0.45,VWS V14.01,2013-02-12 01:11:00,
2013-02-11 20:16:00,44.5,44.2,29.67,South,188,2.0,5.0,99,0.00,,,0.45,VWS V14.01,2013-02-12 01:16:00,
2013-02-11 20:20:00,44.4,44.1,29.67,WNW,290,0.0,5.0,99,0.00,,OVC040,0.45,VWS V14.01,2013-02-12 01:20:00,
2013-02-11 20:21:00,44.4,44.1,29.67,West,264,1.0,5.0,99,0.00,,,0.45,VWS V14.01,2013-02-12 01:21:00,
2013-02-11 20:26:00,44.4,44.1,29.67,SSW,208,5.0,5.0,99,0.00,,,0.45,VWS V14.01,2013-02-12 01:26:00,
2013-02-11 20:30:00,43.8,43.5,29.65,SSE,160,0.0,1.0,99,0.00,,OVC070,0.45,VWS V14.01,2013-02-12 01:30:00,
2013-02-11 20:31:00,44.3,44.0,29.67,SW,236,3.0,4.0,99,0.00,,,0.45,VWS V14.01,2013-02-12 01:31:00,
2013-02-11 20:36:00,44.3,44.0,29.67,WSW,242,3.0,6.0,99,0.00,,,0.45,VWS V14.01,2013-02-12 01:36:00,
2013-02-11 20:40:00,44.2,43.9,29.67,SSW,212,1.0,6.0,99,0.00,,OVC040,0.45,VWS V14.01,2013-02-12 01:40:00,
2013-02-11 20:41:00,44.2,43.9,29.66,WSW,239,5.0,5.0,99,0.00,,,0.45,VWS V14.01,2013-02-12 01:41:00,
2013-02-11 20:46:00,44.2,43.9,29.66,SW,232,0.0,6.0,99,0.00,,,0.45,VWS V14.01,2013-02-12 01:46:00,
2013-02-11 20:50:00,44.1,43.8,29.66,West,269,2.0,6.0,99,0.00,,OVC040,0.45,VWS V14.01,2013-02-12 01:50:00,
2013-02-11 20:51:00,44.1,43.8,29.66,WSW,255,0.0,4.0,99,0.00,,,0.45,VWS V14.01,2013-02-12 01:51:00,
2013-02-11 20:56:00,44.1,43.8,29.66,SW,227,2.0,8.0,99,0.00,,,0.45,VWS V14.01,2013-02-12 01:56:00,
2013-02-11 21:00:00,44.1,43.8,29.65,SW,233,2.0,8.0,99,0.00,,OVC040,0.45,VWS V14.01,2013-02-12 02:00:00,
2013-02-11 21:01:00,44.1,43.8,29.66,WSW,243,3.0,3.0,99,0.00,,,0.45,VWS V14.01,2013-02-12 02:01:00,
2013-02-11 21:06:00,44.0,43.7,29.66,SW,234,0.0,3.0,99,0.00,,,0.45,VWS V14.01,2013-02-12 02:06:00,
2013-02-11 21:10:00,44.0,43.7,29.66,SSE,167,1.0,3.0,99,0.00,,OVC040,0.45,VWS V14.01,2013-02-12 02:10:00,
2013-02-11 21:11:00,43.9,43.6,29.66,SSW,208,2.0,4.0,99,0.00,,,0.45,VWS V14.01,2013-02-12 02:11:00,
2013-02-11 21:16:00,43.9,43.6,29.65,West,261,0.0,4.0,99,0.00,,,0.45,VWS V14.01,2013-02-12 02:16:00,
2013-02-11 21:20:00,43.9,43.6,29.65,WSW,245,0.0,4.0,99,0.00,,OVC040,0.45,VWS V14.01,2013-02-12 02:20:00,
2013-02-11 21:21:00,43.9,43.6,29.65,WSW,245,0.0,0.0,99,0.00,,,0.45,VWS V14.01,2013-02-12 02:21:00,
2013-02-11 21:26:00,43.8,43.5,29.65,SSE,150,1.0,1.0,99,0.00,,,0.45,VWS V14.01,2013-02-12 02:26:00,
2013-02-11 21:30:00,43.8,43.5,29.65,SSE,160,0.0,1.0,99,0.00,,OVC040,0.45,VWS V14.01,2013-02-12 02:30:00,
2013-02-11 21:31:00,43.7,43.4,29.65,SW,229,0.0,1.0,99,0.00,,,0.45,VWS V14.01,2013-02-12 02:31:00,
2013-02-11 21:36:00,43.7,43.4,29.65,SW,221,0.0,1.0,99,0.00,,,0.45,VWS V14.01,2013-02-12 02:36:00,
2013-02-11 21:40:00,43.6,43.3,29.65,SSW,207,4.0,4.0,99,0.00,,OVC040,0.45,VWS V14.01,2013-02-12 02:40:00,
2013-02-11 21:41:00,43.6,43.3,29.65,SSE,149,0.0,4.0,99,0.00,,,0.45,VWS V14.01,2013-02-12 02:41:00,
2013-02-11 21:46:00,43.5,43.2,29.65,SSE,163,0.0,4.0,99,0.00,,,0.45,VWS V14.01,2013-02-12 02:46:00,
2013-02-11 21:50:00,43.5,43.2,29.65,SE,143,0.0,4.0,99,0.00,,OVC040,0.45,VWS V14.01,2013-02-12 02:50:00,
2013-02-11 21:51:00,43.4,43.1,29.64,SSW,194,1.0,3.0,99,0.00,,,0.45,VWS V14.01,2013-02-12 02:51:00,
2013-02-11 21:56:00,43.4,43.1,29.64,SSW,206,2.0,3.0,99,0.00,,,0.45,VWS V14.01,2013-02-12 02:56:00,
2013-02-11 22:00:00,43.4,43.1,29.64,South,174,0.0,3.0,99,0.00,,OVC040,0.45,VWS V14.01,2013-02-12 03:00:00,
2013-02-11 22:01:00,43.3,43.0,29.64,SW,218,0.0,0.0,99,0.00,,,0.45,VWS V14.01,2013-02-12 03:01:00,
2013-02-11 22:06:00,43.3,43.0,29.64,West,263,0.0,2.0,99,0.00,,,0.45,VWS V14.01,2013-02-12 03:06:00,
2013-02-11 22:10:00,43.3,43.0,29.64,West,263,0.0,2.0,99,0.00,,OVC040,0.45,VWS V14.01,2013-02-12 03:10:00,
2013-02-11 22:11:00,43.3,43.0,29.64,SSW,198,0.0,2.0,99,0.00,,,0.45,VWS V14.01,2013-02-12 03:11:00,
2013-02-11 22:16:00,43.2,42.9,29.64,SSW,198,0.0,2.0,99,0.00,,,0.45,VWS V14.01,2013-02-12 03:16:00,
2013-02-11 22:20:00,43.2,42.9,29.64,SSW,212,0.0,2.0,99,0.00,,OVC040,0.45,VWS V14.01,2013-02-12 03:20:00,
2013-02-11 22:21:00,43.1,42.8,29.64,SSW,201,0.0,1.0,99,0.00,,,0.45,VWS V14.01,2013-02-12 03:21:00,
2013-02-11 22:26:00,43.1,42.8,29.63,SW,221,0.0,2.0,99,0.00,,,0.45,VWS V14.01,2013-02-12 03:26:00,
2013-02-11 22:30:00,43.1,42.8,29.63,SW,219,1.0,2.0,99,0.00,,OVC040,0.45,VWS V14.01,2013-02-12 03:30:00,
2013-02-11 22:31:00,43.0,42.7,29.63,WSW,253,0.0,1.0,99,0.00,,,0.45,VWS V14.01,2013-02-12 03:31:00,
2013-02-11 22:36:00,43.0,42.7,29.63,SSW,193,2.0,3.0,99,0.00,,,0.45,VWS V14.01,2013-02-12 03:36:00,
2013-02-11 22:40:00,43.0,42.7,29.63,WSW,243,1.0,3.0,99,0.00,,OVC040,0.45,VWS V14.01,2013-02-12 03:40:00,
2013-02-11 22:41:00,43.0,42.7,29.62,WSW,246,0.0,3.0,99,0.00,,,0.45,VWS V14.01,2013-02-12 03:41:00,
2013-02-11 22:46:00,42.8,42.5,29.62,SW,225,0.0,3.0,99,0.00,,,0.45,VWS V14.01,2013-02-12 03:46:00,
2013-02-11 22:50:00,42.8,42.5,29.63,SW,235,0.0,3.0,99,0.00,,OVC040,0.45,VWS V14.01,2013-02-12 03:50:00,
2013-02-11 22:51:00,42.7,42.4,29.63,WSW,248,2.0,2.0,99,0.00,,,0.45,VWS V14.01,2013-02-12 03:51:00,
2013-02-11 22:56:00,42.6,42.3,29.62,SW,236,0.0,2.0,99,0.00,,,0.45,VWS V14.01,2013-02-12 03:56:00,
2013-02-11 23:00:00,42.6,42.3,29.62,WSW,246,3.0,5.0,99,0.00,,OVC040,0.45,VWS V14.01,2013-02-12 04:00:00,
2013-02-11 23:01:00,42.6,42.3,29.62,SW,229,0.0,3.0,99,0.00,,,0.45,VWS V14.01,2013-02-12 04:01:00,
2013-02-11 23:06:00,42.5,42.2,29.62,SSW,210,3.0,5.0,99,0.00,,,0.45,VWS V14.01,2013-02-12 04:06:00,
2013-02-11 23:10:00,42.5,42.2,29.62,WSW,246,1.0,5.0,99,0.00,,OVC040,0.45,VWS V14.01,2013-02-12 04:10:00,
2013-02-11 23:11:00,42.5,42.2,29.62,WSW,248,0.0,2.0,99,0.00,,,0.45,VWS V14.01,2013-02-12 04:11:00,
2013-02-11 23:16:00,42.5,42.2,29.63,West,263,1.0,5.0,99,0.00,,,0.45,VWS V14.01,2013-02-12 04:16:00,
2013-02-11 23:20:00,42.4,42.1,29.63,SW,234,1.0,5.0,99,0.00,,OVC040,0.45,VWS V14.01,2013-02-12 04:20:00,
2013-02-11 23:21:00,42.3,42.0,29.63,SW,221,3.0,4.0,99,0.00,,,0.45,VWS V14.01,2013-02-12 04:21:00,
2013-02-11 23:26:00,42.3,42.0,29.62,SW,229,4.0,5.0,99,0.00,,,0.45,VWS V14.01,2013-02-12 04:26:00,
2013-02-11 23:30:00,42.3,42.0,29.62,WSW,238,5.0,6.0,99,0.00,,OVC040,0.45,VWS V14.01,2013-02-12 04:30:00,
2013-02-11 23:31:00,42.2,41.9,29.62,West,259,1.0,5.0,99,0.00,,,0.45,VWS V14.01,2013-02-12 04:31:00,
2013-02-11 23:37:00,42.2,41.9,29.62,SW,229,2.0,5.0,99,0.00,,,0.45,VWS V14.01,2013-02-12 04:37:00,
2013-02-11 23:40:00,42.2,41.9,29.62,West,267,2.0,6.0,99,0.00,,OVC040,0.45,VWS V14.01,2013-02-12 04:40:00,
2013-02-11 23:42:00,42.2,41.9,29.62,SW,228,4.0,5.0,99,0.00,,,0.45,VWS V14.01,2013-02-12 04:42:00,
2013-02-11 23:47:00,42.1,41.8,29.62,West,275,2.0,7.0,99,0.00,,,0.45,VWS V14.01,2013-02-12 04:47:00,
2013-02-11 23:50:00,42.1,41.8,29.62,SW,225,2.0,7.0,99,0.00,,OVC040,0.45,VWS V14.01,2013-02-12 04:50:00,
2013-02-11 23:52:00,42.1,41.8,29.62,West,264,4.0,5.0,99,0.00,,,0.45,VWS V14.01,2013-02-12 04:52:00,
2013-02-11 23:57:00,42.2,41.9,29.62,WSW,239,2.0,7.0,99,0.00,,,0.45,VWS V14.01,2013-02-12 04:57:00,